Location: Roanoke
(37.2710°N, 79.9420°W)
Time: 04:20:20
(UTC-04:00)

Daily predictions for brighter satellites

Satellite Brightness Start Highest point End
(mag) Time Altitude Azimuth Time Altitude Azimuth Time Altitude Azimuth
Cosmos 2237 Rocket 2.5 00:05:45 10° NNW 00:11:02 59° NE 00:11:02 59° NE
Cosmos 2082 4.2 00:16:48 51° NE 00:16:48 51° NE 00:21:14 10° NNE
Cosmos 1428 Rocket 4.4 00:14:15 10° N 00:20:15 73° W 00:20:15 73° W
H-2A R/B 4.0 00:26:57 24° NE 00:26:57 24° NE 00:29:15 10° N
Mayak 0.7 00:25:43 10° NNE 00:27:37 25° NNE 00:27:37 25° NNE
Cosmos 2266 Rocket 4.2 00:26:58 10° N 00:33:02 61° ENE 00:33:02 61° ENE
CZ-4C R/B 3.6 00:41:37 10° NW 00:48:29 42° WSW 00:48:29 42° WSW
COSMOS 2455 3.3 00:50:51 52° WNW 00:51:11 53° WNW 00:57:05 10° NNE
CZ-2C R/B 4.4 00:50:43 10° NNW 00:55:11 25° WNW 00:56:18 23° W
Cosmos 2219 Rocket 4.0 00:56:20 10° NW 00:59:19 21° W 00:59:19 21° W
Cosmos 1818 4.4 01:13:58 46° NW 01:13:58 46° NW 01:18:50 10° NNE
Meteor 2-5 Rocket 4.1 01:22:13 65° NNE 01:22:13 65° NNE 01:27:14 10° N
Cosmos 2333 Rocket 4.3 01:19:38 10° WNW 01:21:38 15° W 01:21:38 15° W
Cosmos 2263 Rocket 4.0 01:24:40 21° E 01:24:40 21° E 01:27:37 10° NE
SL-16 R/B 2.7 01:22:23 10° NNW 01:26:44 54° NW 01:26:44 54° NW
S3M 4.3 01:41:11 59° ENE 01:41:11 59° ENE 01:46:56 10° NNE
Cosmos 2297 Rocket 4.1 01:41:29 19° WNW 01:42:47 20° NW 01:46:54 10° N
Cosmos 2056 Rocket 4.2 01:40:33 10° NNW 01:44:26 49° NNE 01:44:26 49° NNE
Cosmos 2227 Rocket 4.3 01:44:40 15° WNW 01:46:24 17° NW 01:50:01 10° NNW
ADEOS Rocket 3.7 01:42:03 10° N 01:46:45 37° WNW 01:46:45 37° WNW
Cosmos 2237 Rocket 4.4 01:51:24 10° WNW 01:52:51 14° WNW 01:52:51 14° WNW
NOSS 3-1 (C) 3.5 01:56:13 66° NE 01:56:13 66° NE 02:01:36 10° NE
Cosmos 1603 4.0 01:54:02 10° NNW 01:59:24 60° NE 01:59:24 60° NE
Mayak 1.5 02:03:36 10° NW 02:04:15 11° NW 02:04:15 11° NW
CZ-4B R/B 4.2 02:15:56 19° NNE 02:15:56 19° NNE 02:17:14 10° NNE
Meteor 2-1 Rocket 4.3 02:08:28 10° N 02:13:52 77° NNE 02:13:52 77° NNE
USA 229 DEB 4.3 02:13:42 41° W 02:15:03 45° NW 02:21:38 10° NNE
USA 229 4.3 02:13:49 41° W 02:15:08 46° NW 02:21:44 10° NNE
NOSS 3-1 (A) 3.4 02:16:40 72° ENE 02:16:40 72° ENE 02:22:23 10° NE
Cosmos 1553 Rocket 4.3 02:21:26 54° WNW 02:21:26 54° WNW 02:27:17 10° N
CZ-2D R/B 3.7 02:25:12 10° NE 02:29:22 24° E 02:29:48 23° ESE
USA 267 4.2 02:24:04 10° ENE 02:29:44 33° ESE 02:29:44 33° ESE
Meteor 1-21 Rocket 4.3 02:30:50 75° E 02:30:51 75° E 02:36:47 10° NNE
Cosmos 2221 3.6 02:34:08 10° N 02:37:43 42° NE 02:37:43 42° NE
Cosmos 1340 4.5 02:37:04 10° N 02:39:09 30° NNE 02:39:09 30° NNE
MOS 1 Rocket 4.3 02:36:31 10° N 02:41:21 43° WNW 02:41:21 43° WNW
Resurs 1-4 Rocket 3.0 02:43:08 10° NNE 02:48:03 37° E 02:48:39 36° ESE
Cosmos 1844 Rocket 4.2 02:47:20 23° ESE 02:48:20 24° ESE 02:52:49 10° NE
Cosmos 883 Rocket 4.4 02:51:11 66° W 02:51:28 67° W 02:57:34 10° N
IRS-P3 4.4 02:50:37 10° NNE 02:55:53 58° E 02:56:17 56° ESE
DELTA 2 R/B (1) 3.6 02:55:45 48° WNW 02:57:19 77° N 03:02:55 10° E
NPP 3.7 02:53:16 10° NNE 02:58:38 69° ESE 02:59:02 66° SE
SL-16 R/B 2.9 03:00:50 31° SE 03:03:46 59° ENE 03:09:51 10° N
Cosmos 2263 Rocket 2.7 03:06:21 44° WNW 03:06:51 45° WNW 03:12:18 10° N
Cosmos 2315 Rocket 3.9 03:06:44 61° WSW 03:07:28 67° W 03:13:41 10° N
Cosmos 1766 Rocket 4.4 03:08:02 40° E 03:08:12 40° E 03:12:17 10° NNE
SL-08 ROCKET BODY 4.3 03:03:17 10° N 03:09:24 88° W 03:10:39 60° S
NOSS 2-3 (D) 3.8 03:10:35 68° ESE 03:10:35 68° ESE 03:15:27 10° NE
Cosmos 1943 3.3 03:05:03 10° NNW 03:10:17 58° W 03:10:17 58° W
Cosmos 921 Rocket 4.1 03:07:58 10° N 03:12:03 41° ENE 03:13:09 34° ESE
GEOS 3 Rocket 4.3 03:07:42 10° NNE 03:12:45 45° NW 03:13:41 41° WNW
BREEZE M DEB (TANK) 3.5 03:10:48 44° SW 03:13:36 81° SE 03:17:27 10° NE
Cosmos 1269 Rocket 3.8 03:16:04 75° SW 03:16:28 81° WNW 03:21:48 10° NNE
Cosmos 1300 4.3 03:13:57 10° NNW 03:15:58 27° NW 03:15:58 27° NW
Cosmos 1452 Rocket 4.4 03:20:34 10° NW 03:24:24 34° WNW 03:24:24 34° WNW
H-2A R/B 2.4 03:22:19 10° N 03:26:46 83° WNW 03:26:46 83° WNW
Meteor 2-2 Rocket 4.4 03:21:57 10° N 03:27:42 69° E 03:30:15 33° SSE
Cosmos 1455 3.4 03:24:16 10° N 03:27:47 37° E 03:28:27 34° ESE
NOSS 2-3 (E) 3.7 03:30:40 67° W 03:31:05 72° WNW 03:36:14 10° NNE
Cosmos 1408 Rocket 3.6 03:34:24 61° SE 03:34:55 69° E 03:39:15 10° NNE
Cosmos 2058 3.7 03:34:44 39° SE 03:35:39 45° E 03:39:42 10° NNE
Helios 1A Rocket 4.5 03:32:17 10° NE 03:35:49 28° E 03:37:07 23° SE
ATLAS 2AS CENTAUR R/B 3.8 03:35:04 24° SSE 03:39:13 42° ESE 03:46:42 10° NE
Geosat 4.1 03:34:20 10° NNE 03:39:21 70° ESE 03:40:39 49° S
Okean 3 Rocket 4.2 03:44:47 39° WNW 03:44:47 39° WNW 03:48:56 10° N
AQUA 4.2 03:42:34 10° N 03:47:07 47° WNW 03:47:45 44° W
Nadezhda 1 Rocket 4.0 03:45:18 33° S 03:48:18 81° E 03:54:37 10° N
Cosmos 2074 Rocket 3.9 03:43:52 10° N 03:50:05 80° W 03:53:18 31° S
SWAS 4.4 03:46:04 10° NNW 03:50:24 85° ENE 03:52:05 36° SSE
Cosmos 1607 3.9 03:45:03 10° NNW 03:51:29 87° WSW 03:57:45 10° SSE
SeaSat 1 2.3 03:51:17 20° SSE 03:54:46 89° WSW 03:59:44 10° NNW
Cosmos 2184 Rocket 4.0 03:49:14 10° N 03:55:36 76° W 03:59:10 28° S
Cosmos 1626 3.8 03:57:05 21° WNW 03:57:05 21° WNW 03:59:24 10° NNW
Cosmos 2154 Rocket 4.4 03:51:45 10° N 03:58:01 64° E 04:04:17 10° SSE
Spot 4 Rocket 3.9 03:53:04 10° N 03:58:13 78° WNW 04:00:05 40° SSW
UNK 4.2 03:59:24 40° WSW 03:59:35 40° W 04:04:00 10° NNW
Meteor 1-27 4.2 03:59:01 10° NNW 04:04:43 75° W 04:08:15 24° S
Cosmos 1743 Rocket 3.6 04:04:18 35° S 04:06:05 74° E 04:10:24 10° N
Cosmos 1610 Rocket 4.5 04:02:08 10° N 04:08:33 87° W 04:13:47 16° S
Cosmos 2151 2.9 04:07:27 41° S 04:08:55 85° W 04:13:15 10° N
CZ-2D R/B 2.8 04:04:44 10° N 04:09:29 37° WNW 04:11:07 29° WSW
SL-08 R/B 4.1 04:10:45 32° WSW 04:11:11 32° W 04:15:37 10° NNW
USA 267 3.5 04:06:35 10° NE 04:13:02 64° NW 04:17:05 24° WSW
Cosmos 1932 4.5 04:07:34 10° NNW 04:13:50 82° ENE 04:20:01 10° SSE
Meteor 2-21 4.3 04:07:48 10° N 04:13:54 79° W 04:18:45 16° S
IRS-1D 4.2 04:10:30 10° N 04:15:27 40° WNW 04:17:28 29° WSW
Cosmos 1110 Rocket 4.1 04:13:17 10° NNW 04:18:19 52° WSW 04:21:14 24° S
Cosmos 405 Rocket 3.7 04:15:51 10° N 04:19:33 45° ENE 04:23:08 10° SSE
ARIANE 5 R/B 2.9 04:14:43 10° N 04:19:36 48° WNW 04:21:43 30° SW
BREEZE-M DEB (TANK) 3.7 04:19:24 20° WSW 04:25:02 71° NNW 04:28:30 10° NE
Meteor 2-10 Rocket 3.9 04:20:31 10° N 04:25:31 62° E 04:30:28 10° SSE
Cosmos 220 Rocket 3.9 04:24:16 31° SSW 04:26:15 76° WNW 04:30:35 10° NNE
H-II Stage 2 3.8 04:24:03 26° SW 04:26:55 44° S 04:50:51 10° ESE
Resurs 1-4 Rocket 3.4 04:23:22 10° NNW 04:27:38 25° WNW 04:29:44 20° W
Cosmos 1844 Rocket 3.3 04:29:00 24° WSW 04:31:55 42° WNW 04:37:18 10° N
Meteor 2-14 Rocket 4.4 04:25:53 10° NNW 04:31:58 70° W 04:37:59 10° S
OAO 2 Rocket 3.2 04:32:58 20° W 04:36:22 68° S 04:41:16 10° E
Cosmos 1500 Rocket 3.8 04:39:18 23° SSW 04:41:52 53° W 04:46:13 10° N
Cosmos 1328 Rocket 4.2 04:38:10 10° NNW 04:42:04 34° W 04:44:01 22° SW
Cosmos 2278 Rocket 2.3 04:37:33 16° SSW 04:42:11 75° ESE 04:47:52 10° NNE
SL-19 R/B 3.6 04:39:46 10° SSE 04:42:45 80° ENE 04:45:34 10° NNW
Cosmos 1441 Rocket 3.2 04:38:54 10° NNW 04:42:51 66° W 04:46:27 12° S
DELTA 2 R/B (1) 3.7 04:38:17 10° W 04:43:42 51° SSW 04:49:06 10° SE
SL-24 DEB 4.2 04:42:45 10° S 04:47:32 81° W 04:52:19 10° N
Cosmos 1844 4.4 04:44:12 20° WSW 04:47:42 40° WNW 04:53:02 10° N
SL-16 R/B 3.8 04:45:56 17° WSW 04:47:43 19° W 04:52:03 10° NW
ADEOS II 2.1 04:42:31 10° N 04:47:46 75° WNW 04:52:26 13° SSW
Meteor 2-8 Rocket 4.4 04:44:10 10° S 04:50:17 83° W 04:56:29 10° N
Cosmos 1892 4.2 04:49:25 10° SSE 04:52:59 37° E 04:56:33 10° NNE
Cosmos 2228 Rocket 3.6 04:49:39 10° NNW 04:53:56 40° W 04:57:41 13° SSW
UNKNOWN OBJECT B 3.9 04:53:29 10° NNW 04:56:40 27° WNW 04:58:38 17° WSW
USA 238 DEB 4.3 04:55:52 10° NNW 05:02:59 66° NE 05:10:10 10° SE
Cosmos 1455 4.3 05:01:58 10° WNW 05:03:00 11° W 05:03:22 11° W
USA 238 4.3 04:55:59 10° NNW 05:03:05 65° NE 05:10:17 10° SE
Cosmos 1302 Rocket 4.4 04:59:23 10° NNW 05:04:20 41° WSW 05:09:15 10° S
Lacrosse 5 3.5 05:00:51 10° S 05:05:11 29° ESE 05:09:30 10° ENE
Cosmos 1666 Rocket 4.3 05:02:46 10° S 05:07:07 55° E 05:11:28 10° NNE
Cosmos 1633 Rocket 4.2 05:03:12 10° SSE 05:07:19 44° E 05:11:28 10° NNE
GP-B 3.5 05:06:15 10° NNW 05:10:28 44° W 05:14:40 10° SSW
Cosmos 1869 4.2 05:10:28 10° NNW 05:13:55 29° W 05:17:20 10° SSW
PSLV R/B 3.5 05:09:51 10° NNE 05:14:08 88° WNW 05:18:27 10° SSW
Cosmos 2341 Rocket 4.3 05:09:07 10° NNW 05:15:02 46° W 05:20:58 10° SSW
Cosmos 724 4.4 05:09:35 10° NNW 05:15:37 87° WSW 05:21:43 10° SSE
PSLV R/B 4.4 05:12:43 10° NNE 05:16:26 56° E 05:20:13 10° S
COSMOS 2406 3.7 05:11:26 10° NW 05:16:48 40° WSW 05:22:07 10° S
Cosmos 1151 Rocket 4.4 05:13:50 10° NW 05:17:05 21° W 05:20:18 10° SW
SL-8 Rocket 4.0 05:14:20 10° NNW 05:20:27 65° W 05:26:35 10° S
Okean O Rocket 3.1 05:16:38 10° NNE 05:20:44 37° E 05:24:49 10° SSE
APEX 2.5 05:18:50 10° NNW 05:21:34 76° ENE 05:24:27 10° SSE
Sich 1 3.0 05:23:48 10° SSW 05:28:03 73° W 05:32:20 10° N
ATLAS 2AS CENTAUR R/B 3.7 05:22:46 10° WSW 05:30:12 45° NW 05:37:58 10° NNE
Cosmos 1408 4.4 05:27:05 10° SSE 05:30:24 33° E 05:33:46 10° NNE
ASTRO E2 3.7 05:26:53 10° WSW 05:30:29 32° S 05:34:04 10° ESE
FAST Rocket 4.4 05:27:58 10° N 05:30:34 68° E 05:33:45 10° SSE
Cosmos 2082 Rocket 3.2 05:25:54 10° NNW 05:31:32 53° ENE 05:37:05 10° SE
Cosmos 2366 rocket 4.0 05:25:54 10° NNW 05:32:07 71° W 05:38:14 10° S
